Date String (YYYY-MM-DD hh:mm:ss) UTC,Instrument flags,Ambient pressure (hPa),Sample flow (lpm),Bypass flow (lpm),Sample temperature (°C),Ambient temperature (°C),ASC tube jacket temperature (°C),LED temperature (°C),Box temperature (°C),Sample RH (%),Span deviation,Mass concentration (μg/m³),Mass concentration (μg/m³),Mass concentration (μg/m³)
DateTimeUTC,F1_M11,P_M11,Q1_M11,Q2_M11,T1_M11,T2_M11,T3_M11,T4_M11,T5_M11,U1_M11,ZSPAN_M11,X0_M11,X2_M11,X1_M11
2022-03-30 00:00:00,,0812.8,5.00,0.00,26.3,25.3,00.0,35.5,28.1,16.9,0000.0,0007.52,0001.15,0000.53
2022-03-30 00:01:00,,0812.9,4.99,0.00,26.3,25.3,00.0,35.4,28.1,16.7,0000.0,0006.19,0001.08,0000.50
2022-03-30 00:02:00,,0812.9,5.01,0.00,26.3,25.3,00.0,35.4,28.1,16.5,0000.0,0005.92,0001.00,0000.47
2022-03-30 00:03:00,,0813.0,5.00,0.00,26.3,25.2,00.0,35.4,28.1,16.4,0000.0,0005.68,0000.91,0000.44
2022-03-30 00:04:00,,0813.0,4.99,0.00,26.3,25.2,00.0,35.4,28.1,16.6,0000.0,0005.41,0000.82,0000.42
2022-03-30 00:05:00,,0813.2,4.99,0.00,26.3,25.3,00.0,35.4,28.1,16.8,0000.0,0006.63,0000.80,0000.40
2022-03-30 00:06:00,,0813.1,5.00,0.00,26.3,25.3,00.0,35.4,28.1,16.8,0000.0,0007.28,0000.75,0000.39
2022-03-30 00:07:00,,0813.1,5.02,0.00,26.3,25.3,00.0,35.4,28.1,16.7,0000.0,0007.17,0000.69,0000.37
2022-03-30 00:08:00,,0813.2,5.00,0.00,26.3,25.3,00.0,35.4,28.1,16.7,0000.0,0005.10,0000.68,0000.37
2022-03-30 00:09:00,,0813.1,4.99,0.00,26.3,25.3,00.0,35.4,28.1,16.8,0000.0,0003.96,0000.66,0000.37
2022-03-30 00:10:00,,0813.1,4.99,0.00,26.3,25.3,00.0,35.4,28.1,16.8,0000.0,0003.89,0000.65,0000.36
2022-03-30 00:11:00,,0813.1,5.02,0.00,26.3,25.4,00.0,35.4,28.1,16.9,0000.0,0003.97,0000.66,0000.36
2022-03-30 00:12:00,,0813.2,5.00,0.00,26.3,25.4,00.0,35.4,28.1,16.9,0000.0,0004.22,0000.69,0000.35
2022-03-30 00:13:00,,0813.2,4.99,0.00,26.3,25.3,00.0,35.4,28.1,17.1,0000.0,0004.16,0000.68,0000.35
2022-03-30 00:14:00,,0813.2,5.00,0.00,26.3,25.3,00.0,35.4,28.1,17.0,0000.0,0004.16,0000.66,0000.34
2022-03-30 00:15:00,,0813.3,5.00,0.00,26.3,25.3,00.0,35.3,28.1,16.9,0000.0,0005.28,0000.65,0000.33
2022-03-30 00:16:00,,0813.3,4.99,0.00,26.3,25.4,00.0,35.3,28.1,16.9,0000.0,0004.17,0000.61,0000.32
2022-03-30 00:17:00,,0813.3,5.00,0.00,26.3,25.4,00.0,35.3,28.1,16.9,0000.0,0004.56,0000.63,0000.30
2022-03-30 00:18:00,,0813.4,5.00,0.00,26.3,25.3,00.0,35.3,28.1,17.0,0000.0,0004.41,0000.61,0000.29
2022-03-30 00:19:00,,0813.5,5.00,0.00,26.3,25.4,00.0,35.3,28.1,17.0,0000.0,0004.52,0000.61,0000.27
2022-03-30 00:20:00,,0813.5,5.00,0.00,26.3,25.4,00.0,35.3,28.1,17.1,0000.0,0004.72,0000.59,0000.26
2022-03-30 00:21:00,,0813.4,4.99,0.00,26.3,25.3,00.0,35.3,28.1,17.1,0000.0,0004.90,0000.57,0000.25
2022-03-30 00:22:00,,0813.5,5.02,0.00,26.3,25.3,00.0,35.3,28.1,17.1,0000.0,0004.99,0000.55,0000.25
2022-03-30 00:23:00,,0813.6,5.00,0.00,26.3,25.3,00.0,35.3,28.1,17.3,0000.0,0004.87,0000.53,0000.24
2022-03-30 00:24:00,,0813.8,4.99,0.00,26.3,25.3,00.0,35.3,28.0,17.3,0000.0,0005.01,0000.53,0000.24
2022-03-30 00:25:00,,0813.6,4.99,0.00,26.2,25.3,00.0,35.3,28.0,17.4,0000.0,0005.08,0000.51,0000.24
2022-03-30 00:26:00,,0813.8,5.00,0.00,26.2,25.3,00.0,35.3,28.0,17.3,0000.0,0004.38,0000.53,0000.24
2022-03-30 00:27:00,,0813.6,5.00,0.00,26.3,25.3,00.0,35.3,28.0,17.2,0000.0,0004.17,0000.56,0000.24
2022-03-30 00:28:00,,0813.7,5.01,0.00,26.3,25.3,00.0,35.3,28.1,17.3,0000.0,0003.43,0000.55,0000.25
2022-03-30 00:29:00,,0813.5,5.00,0.00,26.3,25.3,00.0,35.3,28.1,17.4,0000.0,0003.69,0000.56,0000.26
2022-03-30 00:30:00,,0813.8,5.00,0.00,26.3,25.3,00.0,35.3,28.1,17.3,0000.0,0003.72,0000.59,0000.27
2022-03-30 00:31:00,,0813.8,4.99,0.00,26.3,25.3,00.0,35.3,28.1,17.2,0000.0,0003.34,0000.58,0000.27
2022-03-30 00:32:00,,0814.0,5.01,0.00,26.3,25.3,00.0,35.3,28.1,17.2,0000.0,0003.01,0000.56,0000.27
2022-03-30 00:33:00,,0814.1,5.00,0.00,26.2,25.3,00.0,35.3,28.0,17.3,0000.0,0002.77,0000.55,0000.27
2022-03-30 00:34:00,,0814.0,4.99,0.00,26.2,25.3,00.0,35.3,28.1,17.3,0000.0,0002.59,0000.53,0000.28
2022-03-30 00:35:00,,0813.9,5.00,0.00,26.2,25.3,00.0,35.3,28.1,17.5,0000.0,0002.38,0000.53,0000.28
2022-03-30 00:36:00,,0814.2,4.99,0.00,26.3,25.3,00.0,35.3,28.1,17.4,0000.0,0002.52,0000.56,0000.28
2022-03-30 00:37:00,,0813.7,5.00,0.00,26.3,25.3,00.0,35.3,28.1,17.2,0000.0,0002.12,0000.56,0000.28
2022-03-30 00:38:00,,0813.8,5.00,0.00,26.3,25.3,00.0,35.3,28.1,17.3,0000.0,0002.12,0000.56,0000.28
2022-03-30 00:39:00,,0813.7,4.99,0.00,26.3,25.3,00.0,35.3,28.1,17.3,0000.0,0001.95,0000.53,0000.28
2022-03-30 00:40:00,,0813.7,5.01,0.00,26.2,25.2,00.0,35.2,28.1,17.3,0000.0,0001.26,0000.52,0000.28
2022-03-30 00:41:00,,0813.7,5.01,0.00,26.3,25.3,00.0,35.3,28.1,17.4,0000.0,0001.03,0000.45,0000.27
2022-03-30 00:42:00,,0813.8,5.00,0.00,26.3,25.3,00.0,35.2,28.1,17.4,0000.0,0001.26,0000.44,0000.27
2022-03-30 00:43:00,,0813.9,4.99,0.00,26.2,25.2,00.0,35.2,28.0,17.4,0000.0,0001.87,0000.50,0000.28
2022-03-30 00:44:00,,0814.1,5.01,0.00,26.2,25.3,00.0,35.2,28.0,17.5,0000.0,0002.65,0000.55,0000.28
2022-03-30 00:45:00,,0814.4,5.00,0.00,26.3,25.3,00.0,35.2,28.1,17.6,0000.0,0002.84,0000.59,0000.29
2022-03-30 00:46:00,,0814.1,5.00,0.00,26.3,25.3,00.0,35.2,28.1,17.7,0000.0,0002.94,0000.62,0000.29
2022-03-30 00:47:00,,0813.9,4.99,0.00,26.3,25.3,00.0,35.2,28.1,17.7,0000.0,0003.50,0000.64,0000.30
2022-03-30 00:48:00,,0814.0,5.00,0.00,26.3,25.3,00.0,35.2,28.1,17.6,0000.0,0004.11,0000.63,0000.31
2022-03-30 00:49:00,,0814.0,5.01,0.00,26.3,25.3,00.0,35.2,28.1,17.7,0000.0,0004.20,0000.66,0000.32
2022-03-30 00:50:00,,0814.2,5.00,0.00,26.3,25.3,00.0,35.2,28.1,17.8,0000.0,0004.17,0000.66,0000.32
2022-03-30 00:51:00,,0814.0,5.01,0.00,26.3,25.3,00.0,35.2,28.1,17.9,0000.0,0004.48,0000.67,0000.33
2022-03-30 00:52:00,,0814.0,4.99,0.00,26.3,25.4,00.0,35.2,28.1,17.8,0000.0,0005.64,0000.69,0000.34
2022-03-30 00:53:00,,0814.1,5.00,0.00,26.3,25.3,00.0,35.3,28.1,17.8,0000.0,0005.50,0000.71,0000.35
2022-03-30 00:54:00,,0814.2,4.99,0.00,26.3,25.3,00.0,35.3,28.1,17.8,0000.0,0004.87,0000.68,0000.36
2022-03-30 00:55:00,,0814.1,5.00,0.00,26.3,25.3,00.0,35.2,28.1,17.8,0000.0,0004.28,0000.65,0000.37
2022-03-30 00:56:00,,0814.0,4.99,0.00,26.3,25.3,00.0,35.2,28.1,18.0,0000.0,0004.02,0000.64,0000.37
2022-03-30 00:57:00,,0814.0,4.99,0.00,26.3,25.3,00.0,35.2,28.1,18.0,0000.0,0004.14,0000.62,0000.38
2022-03-30 00:58:00,,0814.1,4.99,0.00,26.2,25.3,00.0,35.2,28.0,17.6,0000.0,0003.79,0000.59,0000.38
2022-03-30 00:59:00,,0814.1,5.00,0.00,26.2,25.3,00.0,35.2,28.0,17.4,0000.0,0002.91,0000.61,0000.39
